Stündliche Wetter Bolshie Turki

Heute, 16 Januar, Samstag

Zeit Temperatur Niederschläge Wind Luftdruck Luftfeuchtigkeit
00:00 -12°C° 1 mm 4 m/S 735 mmHg 95%
01:00 -13°C° 0.6 mm 5 m/S 735 mmHg 94%
02:00 -14°C° 0.6 mm 6 m/S 735 mmHg 94%
03:00 -15°C° 0 mm 6 m/S 735 mmHg 93%
04:00 -15°C° 0.1 mm 6 m/S 735 mmHg 92%
05:00 -15°C° 0.1 mm 7 m/S 736 mmHg 92%
06:00 -15°C° 0.1 mm 7 m/S 736 mmHg 91%
07:00 -15°C° 0 mm 7 m/S 736 mmHg 92%
08:00 -17°C° 0 mm 7 m/S 736 mmHg 93%
09:00 -16°C° 0 mm 6 m/S 737 mmHg 93%
10:00 -15°C° 0.1 mm 6 m/S 737 mmHg 93%
11:00 -14°C° 0.1 mm 7 m/S 737 mmHg 93%
12:00 -13°C° 0.1 mm 7 m/S 737 mmHg 93%
13:00 -13°C° 0.1 mm 7 m/S 737 mmHg 92%
14:00 -15°C° 0.1 mm 8 m/S 738 mmHg 91%
15:00 -13°C° 0 mm 8 m/S 737 mmHg 93%
16:00 -15°C° 0.1 mm 8 m/S 738 mmHg 92%
17:00 -17°C° 0.1 mm 8 m/S 738 mmHg 92%
18:00 -18°C° 0.1 mm 8 m/S 738 mmHg 91%
19:00 -19°C° 0 mm 8 m/S 739 mmHg 91%
20:00 -19°C° 0 mm 7 m/S 739 mmHg 91%
21:00 -20°C° 0 mm 7 m/S 740 mmHg 91%
22:00 -20°C° 0 mm 7 m/S 740 mmHg 92%
23:00 -21°C° 0 mm 7 m/S 740 mmHg 92%

Morgen, 17 Januar, Sonntag

Zeit Temperatur Niederschläge Wind Luftdruck Luftfeuchtigkeit
00:00 -21°C° 0 mm 6 m/S 741 mmHg 93%
01:00 -22°C° 0 mm 6 m/S 741 mmHg 93%
02:00 -21°C° 0 mm 5 m/S 741 mmHg 94%
03:00 -22°C° 0 mm 5 m/S 742 mmHg 95%
04:00 -22°C° 0 mm 5 m/S 742 mmHg 95%
05:00 -23°C° 0 mm 4 m/S 742 mmHg 96%
06:00 -24°C° 0 mm 4 m/S 742 mmHg 97%
07:00 -25°C° 0 mm 4 m/S 742 mmHg 97%
08:00 -25°C° 0 mm 3 m/S 743 mmHg 98%
09:00 -25°C° 0 mm 3 m/S 743 mmHg 98%
10:00 -23°C° 0 mm 2 m/S 743 mmHg 97%
11:00 -21°C° 0 mm 2 m/S 744 mmHg 96%
12:00 -21°C° 0 mm 2 m/S 744 mmHg 95%
13:00 -21°C° 0 mm 2 m/S 744 mmHg 95%
14:00 -19°C° 0 mm 1 m/S 744 mmHg 95%
15:00 -19°C° 0 mm 1 m/S 744 mmHg 95%
16:00 -20°C° 0 mm 1 m/S 744 mmHg 96%
17:00 -21°C° 0 mm 1 m/S 744 mmHg 96%
18:00 -22°C° 0 mm 1 m/S 745 mmHg 97%
19:00 -22°C° 0 mm 1 m/S 745 mmHg 96%
20:00 -22°C° 0 mm 1 m/S 745 mmHg 96%
21:00 -21°C° 0 mm 1 m/S 746 mmHg 96%
22:00 -21°C° 0 mm 1 m/S 745 mmHg 95%
23:00 -20°C° 0 mm 1 m/S 745 mmHg 94%

übermorgen, 18 Januar, Montag

Zeit Temperatur Niederschläge Wind Luftdruck Luftfeuchtigkeit
00:00 -23°C° 0 mm 2 m/S 745 mmHg 94%
01:00 -23°C° 0 mm 2 m/S 745 mmHg 94%
02:00 -24°C° 0 mm 2 m/S 745 mmHg 94%
03:00 -24°C° 0 mm 2 m/S 745 mmHg 93%
04:00 -24°C° 0 mm 2 m/S 745 mmHg 93%
05:00 -24°C° 0 mm 2 m/S 745 mmHg 93%
06:00 -24°C° 0 mm 2 m/S 745 mmHg 93%
07:00 -24°C° 0 mm 2 m/S 745 mmHg 93%
08:00 -23°C° 0 mm 2 m/S 745 mmHg 92%
09:00 -21°C° 0 mm 2 m/S 746 mmHg 92%
10:00 -21°C° 0.1 mm 2 m/S 746 mmHg 92%
11:00 -20°C° 0.1 mm 2 m/S 745 mmHg 92%
12:00 -21°C° 0.1 mm 3 m/S 745 mmHg 92%
13:00 -19°C° 0.2 mm 2 m/S 745 mmHg 93%
14:00 -18°C° 0.2 mm 2 m/S 745 mmHg 94%
15:00 -18°C° 0.2 mm 2 m/S 745 mmHg 95%
16:00 -18°C° 0.3 mm 2 m/S 745 mmHg 95%
17:00 -18°C° 0.3 mm 2 m/S 745 mmHg 96%
18:00 -18°C° 0.3 mm 2 m/S 745 mmHg 96%
19:00 -19°C° 0.2 mm 2 m/S 745 mmHg 96%
20:00 -19°C° 0.2 mm 2 m/S 745 mmHg 96%
21:00 -19°C° 0.2 mm 2 m/S 745 mmHg 96%
22:00 -20°C° 0 mm 2 m/S 745 mmHg 96%
23:00 -20°C° 0 mm 2 m/S 745 mmHg 97%

19 Januar, Dienstag

Zeit Temperatur Niederschläge Wind Luftdruck Luftfeuchtigkeit
00:00 -20°C° 0 mm 2 m/S 745 mmHg 97%
01:00 -21°C° 0 mm 2 m/S 745 mmHg 97%
02:00 -21°C° 0 mm 2 m/S 745 mmHg 97%
03:00 -23°C° 0 mm 2 m/S 745 mmHg 97%
04:00 -24°C° 0 mm 2 m/S 745 mmHg 97%
05:00 -24°C° 0 mm 2 m/S 745 mmHg 97%
06:00 -25°C° 0 mm 2 m/S 745 mmHg 97%
07:00 -25°C° 0 mm 2 m/S 745 mmHg 97%
08:00 -25°C° 0 mm 2 m/S 745 mmHg 97%
09:00 -25°C° 0 mm 2 m/S 745 mmHg 97%
10:00 -25°C° 0 mm 2 m/S 745 mmHg 96%
11:00 -24°C° 0 mm 2 m/S 745 mmHg 96%
12:00 -23°C° 0 mm 2 m/S 745 mmHg 95%
13:00 -23°C° 0 mm 2 m/S 745 mmHg 96%
14:00 -23°C° 0 mm 2 m/S 745 mmHg 96%
15:00 -23°C° 0 mm 2 m/S 744 mmHg 96%
16:00 -24°C° 0 mm 2 m/S 745 mmHg 97%
17:00 -25°C° 0 mm 2 m/S 745 mmHg 98%
18:00 -26°C° 0 mm 2 m/S 745 mmHg 98%
19:00 -25°C° 0 mm 2 m/S 745 mmHg 98%
20:00 -25°C° 0 mm 2 m/S 746 mmHg 98%
21:00 -24°C° 0 mm 2 m/S 746 mmHg 98%
22:00 -25°C° 0 mm 2 m/S 746 mmHg 98%
23:00 -25°C° 0 mm 2 m/S 746 mmHg 98%

20 Januar, Mittwoch

Zeit Temperatur Niederschläge Wind Luftdruck Luftfeuchtigkeit
00:00 -27°C° 0 mm 3 m/S 746 mmHg 98%
01:00 -26°C° 0 mm 3 m/S 746 mmHg 98%
02:00 -26°C° 0 mm 3 m/S 746 mmHg 98%
03:00 -26°C° 0 mm 3 m/S 746 mmHg 98%
04:00 -25°C° 0 mm 3 m/S 747 mmHg 98%
05:00 -24°C° 0 mm 3 m/S 747 mmHg 97%
06:00 -24°C° 0 mm 3 m/S 747 mmHg 97%
07:00 -23°C° 0 mm 3 m/S 747 mmHg 97%
08:00 -23°C° 0 mm 3 m/S 748 mmHg 96%
09:00 -23°C° 0 mm 3 m/S 748 mmHg 96%
10:00 -23°C° 0 mm 3 m/S 748 mmHg 95%
11:00 -22°C° 0 mm 3 m/S 748 mmHg 94%
12:00 -22°C° 0 mm 3 m/S 749 mmHg 94%
13:00 -22°C° 0 mm 3 m/S 749 mmHg 94%
14:00 -23°C° 0 mm 3 m/S 749 mmHg 94%
15:00 -23°C° 0 mm 3 m/S 749 mmHg 94%
16:00 -24°C° 0 mm 3 m/S 749 mmHg 95%
17:00 -25°C° 0 mm 3 m/S 750 mmHg 96%
18:00 -26°C° 0 mm 3 m/S 750 mmHg 97%
19:00 -26°C° 0 mm 3 m/S 751 mmHg 97%
20:00 -27°C° 0 mm 3 m/S 751 mmHg 97%
21:00 -27°C° 0 mm 3 m/S 751 mmHg 97%
22:00 -27°C° 0 mm 3 m/S 752 mmHg 97%
23:00 -27°C° 0 mm 3 m/S 752 mmHg 98%

21 Januar, Donnerstag

Zeit Temperatur Niederschläge Wind Luftdruck Luftfeuchtigkeit
00:00 -27°C° 0 mm 2 m/S 752 mmHg 98%
01:00 -27°C° 0 mm 2 m/S 753 mmHg 98%
02:00 -27°C° 0 mm 2 m/S 753 mmHg 98%
03:00 -27°C° 0 mm 2 m/S 753 mmHg 98%
04:00 -27°C° 0 mm 2 m/S 753 mmHg 98%
05:00 -27°C° 0 mm 2 m/S 754 mmHg 98%
06:00 -27°C° 0 mm 2 m/S 754 mmHg 99%
07:00 -26°C° 0 mm 2 m/S 754 mmHg 98%
08:00 -26°C° 0 mm 2 m/S 754 mmHg 98%
09:00 -26°C° 0 mm 2 m/S 754 mmHg 98%
10:00 -24°C° 0 mm 2 m/S 754 mmHg 97%
11:00 -24°C° 0 mm 3 m/S 755 mmHg 96%
12:00 -22°C° 0 mm 3 m/S 755 mmHg 95%
13:00 -22°C° 0 mm 3 m/S 754 mmHg 95%
14:00 -21°C° 0 mm 3 m/S 754 mmHg 95%
15:00 -22°C° 0 mm 4 m/S 754 mmHg 94%
16:00 -22°C° 0 mm 4 m/S 753 mmHg 94%
17:00 -23°C° 0 mm 4 m/S 753 mmHg 94%
18:00 -23°C° 0 mm 4 m/S 753 mmHg 93%
19:00 -23°C° 0 mm 4 m/S 752 mmHg 92%
20:00 -22°C° 0 mm 5 m/S 752 mmHg 90%
21:00 -22°C° 0 mm 6 m/S 751 mmHg 89%
22:00 -21°C° 0 mm 6 m/S 751 mmHg 89%
23:00 -20°C° 0 mm 7 m/S 751 mmHg 88%
Mehr zeigen

Wir brauchen deine Erlaubnis

Meteoprog und unser Service Anbieter werden persönliche Daten aufbewahren, so wie Cookies, Geräte Bezeichnung oder ähnliche Technologien von deinem Gerät und Prozess, so wie Persönliche Daten Inhalte und Werbungen, genauso wie social Media und den Verkehr zu analysieren.

  • Aufbewahrung und/oder Zugang zu deiner Geräte Informationen.

    Cookies, Geräte Bezeichnung oder andere Informationen, können aufbewahrt oder Zugang zu deinem Gerät erhalten, für den Grund, der oben angegeben wird.

  • Personalisierte Werbung und Inhalte, Messungen, Einblick in das Publikum und Produkt Entwicklung.

    Werbungen und Inhalte können personalisiert werden, basierend auf ein Profil. Mehr Daten können besser personalisierte Werbungen und Inhalte hinzufügen. Werbung und Inhalte können gezeigt und gemessen werden. Einblicke über das Publikum, welche die Werbung gesehen haben und den Inhalt, können abgeleitet werden. So wie Daten können genutzt werden, um es zu verbessern oder die Benutzer Erfahrung zu verbessern das System und die Software.

Wenn du “Ich stimme zu” klickst, erlaubst du uns, die Cookies zu benutzen die Geräte Bezeichnung, den Web oder ähnliche Technologien zu benutzen. Deine Settings, können in deinem Gerät bei deinem Browser geändert werden.

Für den bestimmten Zweck, berechtigten Interessen beruhen darauf, mehr als auf den Inhalt. Du kannst mehr darüber in unseren Privaten und Cookie Politik lesen.